Location: Red Rock Farm
(35.2100°N, 97.2200°W)
Time: 11:00:43
(UTC-05:00)

Daily predictions for brighter satellites

Satellite Brightness Start Highest point End
(mag) Time Altitude Azimuth Time Altitude Azimuth Time Altitude Azimuth
Helios 1A 3.0 20:18:31 10° SSE 20:22:39 64° ENE 20:26:48 10° N
FREGAT/IRIS 3.0 20:20:23 10° S 20:23:30 72° W 20:26:39 10° NNW
Cosmos 1500 4.3 20:20:37 10° SE 20:23:40 24° E 20:26:45 10° NE
Cosmos 1461 3.6 20:20:47 10° NW 20:24:41 52° WSW 20:28:29 10° SSE
Cosmos 2227 Rocket 2.3 20:22:12 10° NNW 20:27:53 86° WSW 20:33:32 10° SSE
Cosmos 2322 Rocket 3.9 20:27:02 10° ESE 20:28:29 11° E 20:29:57 10° E
Cosmos 1934 Rocket 4.2 20:23:27 10° S 20:29:35 78° W 20:35:51 10° N
CZ-2D R/B 4.1 20:31:11 10° SE 20:34:36 31° ENE 20:38:03 10° N
EO 1 Delta rocket 4.3 20:33:04 10° NNE 20:37:58 54° E 20:43:56 10° S
Resurs 01 Rocket 1.8 20:34:57 10° S 20:39:22 78° WSW 20:43:50 10° NNW
Cosmos 1975 2.8 20:35:30 10° S 20:39:34 70° E 20:43:39 10° NNE
Cosmos 2297 Rocket 2.2 20:36:42 10° NNW 20:42:23 89° ENE 20:48:03 10° SSE
Lacrosse 5 rocket 2.2 20:39:31 10° NW 20:42:59 39° SW 20:46:22 10° SSE
Cosmos 1763 Rocket 4.1 20:38:31 10° SSE 20:43:00 32° E 20:47:27 10° NE
Cosmos 2082 4.2 20:40:40 10° NNW 20:46:13 64° WSW 20:51:46 10° S
Cosmos 1153 Rocket 4.4 20:40:12 10° S 20:46:17 66° E 20:52:22 10° NNE
HJ-1C 4.4 20:43:54 10° S 20:47:05 48° W 20:50:18 10° NNW
FengYun 1-2 T 4.3 20:42:45 10° SSE 20:48:23 85° ENE 20:54:00 10° NNW
Cosmos 1515 3.8 20:48:09 10° N 20:51:54 51° E 20:55:37 10° SSE
Cosmos 2150 Rocket 4.0 20:49:19 10° N 20:54:24 59° ENE 20:59:25 11° SSE
Cosmos 2084 3.5 20:53:26 10° NW 20:57:34 81° WSW 21:01:27 13° SSE
BREEZE-M DEB (TANK) 4.3 20:57:21 10° NNE 20:58:03 11° NE 20:58:52 10° NE
Cosmos 1898 Rocket 3.4 20:56:21 10° NNW 21:01:39 75° ENE 21:06:47 10° SSE
Cosmos 1802 Rocket 4.3 20:59:13 10° SSE 21:05:15 45° E 21:11:19 10° NNE
Cosmos 468 Rocket 4.4 21:00:33 10° SSW 21:05:37 66° WNW 21:10:45 10° NNE
Cosmos 2016 Rocket 4.4 21:01:44 10° SSE 21:07:18 38° E 21:12:55 10° NNE
Cosmos 841 Rocket 3.6 21:04:03 10° S 21:09:06 51° ESE 21:14:09 10° NNE
Cosmos 1743 2.8 21:06:39 10° S 21:10:27 52° E 21:14:17 10° NNE
OTV 4 3.3 21:10:27 10° SW 21:10:46 10° SW 21:11:06 10° SSW
Cosmos 1697 Rocket 3.4 21:05:48 10° SW 21:11:19 56° WNW 21:16:53 10° NNE
H-2A R/B 3.9 21:12:09 14° ENE 21:12:09 14° ENE 21:13:54 10° NE
CZ-4B DEB 4.0 21:10:55 10° S 21:14:02 42° W 21:17:12 10° NNW
Cosmos 1626 Rocket 4.3 21:12:36 10° NNW 21:16:52 52° W 21:21:03 10° S
Cosmos 2173 Rocket 4.0 21:12:28 10° S 21:18:46 69° E 21:25:03 10° NNE
Cosmos 2098 Rocket 4.5 21:13:48 14° SSE 21:18:53 36° E 21:24:01 10° NNE
Cosmos 1939 Rocket 3.8 21:22:25 31° ENE 21:22:38 31° ENE 21:26:20 10° N
DELTA 2 R/B (1) 4.1 21:18:02 10° WNW 21:23:25 51° SSW 21:26:11 27° SSE
Cosmos 1066 Rocket 4.3 21:19:12 10° N 21:24:58 88° W 21:30:48 10° S
USA 186 2.1 21:24:27 28° SSW 21:25:46 56° W 21:28:32 10° NNW
SJ-11-01 4.5 21:24:29 34° SE 21:26:06 50° ENE 21:30:37 10° N
SL-16 R/B 2.6 21:22:06 10° S 21:27:18 39° ESE 21:32:32 10° NE
Lacrosse 5 1.9 21:22:42 10° NW 21:27:45 74° SW 21:30:12 31° SSE
BREEZE-M TANK 3.6 21:19:40 10° WNW 21:29:38 49° NNE 21:31:15 31° ENE
Cosmos 1758 Rocket 4.1 21:27:04 10° N 21:30:56 36° ENE 21:30:56 36° ENE
SPOT 5 4.1 21:36:37 26° ENE 21:36:37 26° ENE 21:40:09 10° NNE
Iridium 4 Rocket 4.1 21:31:40 10° NNW 21:36:14 49° W 21:40:27 10° SSW
Cosmos 1980 Rocket 2.8 21:30:43 10° SW 21:36:16 58° WNW 21:41:54 10° NNE
YAOGAN 11 4.1 21:35:46 46° SE 21:36:57 66° ENE 21:41:22 10° N
Cosmos 2100 Rocket 4.2 21:32:49 10° SSW 21:39:05 74° W 21:45:19 10° N
ALOS 3.7 21:36:25 10° SSW 21:40:41 36° W 21:45:00 10° NNW
H-2A R/B 4.2 21:37:17 10° SSW 21:40:50 36° W 21:44:30 10° NNW
CZ-4 DEB 3.7 21:47:38 43° NNW 21:47:38 43° NNW 21:49:52 10° NNW
Cosmos 1666 3.5 21:48:55 40° NNE 21:48:55 40° NNE 21:51:28 10° NNE
deb Chang Zheng 4 4.5 21:45:03 10° NNE 21:47:57 35° NE 21:47:57 35° NE
RESURS DK-1 3.7 21:48:11 10° NW 21:52:00 36° WSW 21:53:33 26° SSW
Envisat 2.9 21:52:51 60° ESE 21:53:32 68° ENE 21:58:35 10° N
Tiangong 1 2.7 21:51:07 10° WNW 21:53:02 33° W 21:53:02 33° W
Cosmos 1842 4.3 21:51:40 10° N 21:54:09 35° NNE 21:54:09 35° NNE
OAO 2 Rocket 3.4 21:51:43 10° W 21:56:39 60° SSW 21:56:54 59° S
Cosmos 1606 Rocket 4.1 21:53:55 17° SSW 21:57:09 57° W 22:01:32 10° N
Tsikada Rocket 4.1 21:51:28 10° N 21:57:43 52° E 21:58:24 50° ESE
Cosmos 1937 Rocket 4.5 21:53:16 10° NNW 21:58:16 44° WSW 22:01:21 22° SSW
Cosmos 2058 Rocket 3.0 21:59:23 85° S 21:59:31 90° WNW 22:04:03 10° N
Cosmos 2263 Rocket 3.4 21:58:04 10° N 22:02:03 26° NE 22:02:03 26° NE
Cosmos 1340 3.6 22:02:32 10° NNW 22:06:07 45° W 22:06:07 45° W
Cosmos 1725 Rocket 3.8 22:07:38 43° S 22:09:50 85° E 22:16:06 10° N
ERS-1 Rocket 3.3 22:09:01 49° SSW 22:10:08 62° WSW 22:15:07 10° NNW
Cosmos 2322 Rocket 2.2 22:06:08 10° SSW 22:11:44 77° WNW 22:17:22 10° NNE
MetOp-A 4.4 22:12:35 53° NE 22:12:35 53° NE 22:17:11 10° N
Cosmos 2233 Rocket 4.1 22:30:38 63° NE 22:30:38 63° NE 22:35:57 10° N
H-2A R/B 4.1 22:35:07 15° NNE 22:35:07 15° NNE 22:36:18 10° NNE
ASTEX 1 4.4 22:40:22 10° N 22:44:47 43° WNW 22:44:47 43° WNW
H-2A R/B 4.1 22:49:17 25° NW 22:49:17 25° NW 22:51:18 10° NNW
Cosmos 1125 Rocket 4.5 22:44:51 10° NNW 22:48:48 44° WNW 22:48:48 44° WNW
ARGOS 4.4 23:01:55 38° NNW 23:01:55 38° NNW 23:05:08 10° NNW
CZ-3C R/B 4.3 22:47:54 10° W 23:01:01 20° SW 23:02:34 19° SW
Milstar 3 Cent rocket 4.4 22:46:53 10° W 23:05:25 46° SSW 23:06:48 45° SSW
SL-16 R/B 4.1 23:06:49 10° WSW 23:11:28 26° WNW 23:16:09 10° N
Cosmos 2360 Rocket 4.2 23:24:16 21° N 23:24:16 21° N 23:26:11 10° NNE
Terra 4.4 23:25:58 15° N 23:25:58 15° N 23:26:45 10° N
Cosmos 2263 Rocket 4.3 23:41:37 10° NW 23:43:44 21° NW 23:43:44 21° NW
